User: anonymous   Login
Location: Unnamed
(51.8936°N, 11.0665°E)
Time: 13:00:31
(UTC+02:00)
Language:

NO-84 - Orbit

View from above orbital plane
View from above orbital plane
View from above satellite
View from above satellite

Ground track
Ground track

The orbit data is extracted from the following two-line orbital elements,

1 40654U 15025D   21257.95518962  .00055464  11497-4  30760-3 0  1489
2 40654  54.9765 336.8885 0060304 308.3214  51.2393 15.77435795 21146
Epoch (UTC): 14 September 2021 22:55:28
Eccentricity: 0.0060304
inclination: 54.9765°
perigee height: 297 km
apogee height: 378 km
right ascension of ascending node: 336.8885°
argument of perigee: 308.3214°
revolutions per day: 15.77435795
mean anomaly at epoch: 51.2393°
orbit number at epoch: 2114

The dashed part of the orbit path shows where the satellite is in the earth's shadow,  

DLR